BEIDOU 10

Last updated on Oct. 29, 2020, 5:52 a.m. UTC

1 37948U 11073A   20302.44417811 -.00000146  00000-0  10000-3 0  9996
2 37948  51.3529 296.3548 0071210 216.8153 139.4231  1.00265799 32762
UTC
Height (km)
Latitude
Longitude
Inclination
Orbital Period
UTC large
Height (km)
Speed (km/s)
/
Latitude / Longitude
Inclination (degrees)
Orbital Period (minutes)
Azimuth
Elevation
Range (km)
Doppler Factor
iOS Compass Heading
iOS Angle

Next 30 passes for location: Hong Kong

Rise time Rise Azimuth (degrees) Set time Set Azimuth (degrees) Duration Max altitude (degrees)

No matching passes for this satellites